Location: Partizánske
(48.6285°N, 18.3769°E)
Time: 19:37:11
(UTC+02:00)

Transit 2A - Visible Passes

Search period start: 07 July 2022 00:00
Search period end: 17 July 2022 00:00
Orbit: 600 x 957 km, 66.7° (Epoch: 06 July)

Date Brightness Start Highest point End Pass type
(mag) Time Alt. Az. Time Alt. Az. Time Alt. Az.
07 Jul 9.4 00:29:43 10° NNW 00:30:15 10° NNW 00:30:47 10° N visible
07 Jul 8.6 03:57:16 10° NNW 04:00:45 22° NE 04:04:08 10° E visible
07 Jul 7.6 22:06:11 10° WSW 22:11:02 37° NW 22:15:29 10° NNE visible
07 Jul 9.2 23:53:40 10° NW 23:55:30 12° NNW 23:57:16 10° N visible
08 Jul 8.8 03:23:10 10° N 03:26:08 17° NNE 03:29:03 10° ENE visible
08 Jul 7.0 21:31:28 10° SW 21:36:35 50° NW 21:41:15 10° NNE visible
08 Jul 9.2 23:18:09 10° WNW 23:20:47 14° NNW 23:23:20 10° N visible
09 Jul 9.1 02:49:07 10° N 02:51:29 14° NNE 02:53:47 10° ENE visible
09 Jul 9.0 22:42:50 10° WNW 22:46:08 17° NNW 22:49:17 10° N visible
10 Jul 9.2 02:15:14 10° N 02:16:46 12° NNE 02:18:18 10° NE visible
10 Jul 7.2 03:57:02 10° NNW 04:01:12 39° NE 04:05:17 10° ESE visible
10 Jul 8.7 22:07:40 10° W 22:11:32 21° NW 22:15:10 10° NNE visible
11 Jul 7.8 03:22:49 10° NNW 03:26:43 29° NE 03:30:32 10° ESE visible
11 Jul 8.4 21:32:37 10° W 21:36:58 27° NW 21:41:01 10° NNE visible
12 Jul 8.3 02:48:39 10° NNW 02:52:10 22° NE 02:55:37 10° E visible
12 Jul 9.3 22:45:26 10° NW 22:46:58 11° NNW 22:48:29 10° N visible
13 Jul 8.6 02:14:33 10° N 02:17:35 18° NNE 02:20:33 10° ENE visible
13 Jul 5.6 03:56:59 10° NW 04:01:23 86° NE 04:05:45 10° SE visible
13 Jul 9.0 22:09:50 10° WNW 22:12:15 14° NNW 22:14:36 10° N visible
14 Jul 8.7 01:40:29 10° N 01:42:56 14° NNE 01:45:19 10° ENE visible
14 Jul 6.2 03:22:40 10° NNW 03:27:01 59° NE 03:31:19 10° SE visible
14 Jul 8.8 21:34:28 10° WNW 21:37:35 16° NNW 21:40:34 10° N visible
15 Jul 8.8 01:06:35 10° N 01:08:14 12° NNE 01:09:51 10° NE visible
15 Jul 6.9 02:48:25 10° NNW 02:52:36 41° NE 02:56:44 10° ESE visible
16 Jul 7.5 02:14:13 10° NNW 02:18:08 30° NE 02:21:59 10° ESE visible
16 Jul 6.0 03:57:15 10° NW 04:01:20 40° WSW 04:05:24 10° S visible
